[[{"header":{"parameterUnit":"m.s-1","parameterCategory":1,"la1":30.2991,"la2":30.254,"lo1":-89.0895,"lo2":-89.0444,"dy":0.0017,"dx":0.0017,"nx":28,"ny":28,"refTime":"2025-04-17T21:00:00:Z","depth":0,"parameterNumber":2,"parameterNumberName":"U-component_of_WINDS"},"data":[0,0,0,0,0,0,0,0,0,0,0,0,0,0,0,0,0,0,0,0,0,0,0,0,0,0,0,0,0,0,0,0,0,0,0,0,0,0,0,0,0,0,0,0,0,0,0,0,0,0,0,0,0,0,0,0,0,0,-3.0733,-3.0734,0,-3.0795,-3.0796,-3.0797,-3.0819,-3.0819,-3.0819,-3.0819,-3.088,-3.0881,-3.0883,0,0,0,0,0,0,0,0,0,0,0,0,0,-3.0631,-3.0633,-3.0733,-3.0734,-3.0734,-3.0795,-3.0796,-3.0797,-3.0819,-3.0819,-3.0819,-3.0819,-3.0879,-3.0881,-3.0883,0,0,0,0,0,0,0,0,0,0,0,0,0,-3.0682,-3.0633,-3.0733,-3.0753,-3.0755,-3.0795,-3.0796,-3.0797,-3.0819,-3.0819,-3.0819,-3.0818,-3.0878,-3.0881,-3.0884,-3.0907,0,0,-3.0892,-3.0893,0,0,0,0,0,0,0,0,-3.0679,-3.0686,-3.0749,-3.0752,-3.0754,-3.0799,-3.0783,-3.0834,-3.0819,-3.0795,-3.0819,-3.0818,-3.0853,-3.0858,-3.087,-3.091,-3.0913,-3.0892,-3.0894,-3.0895,-3.0896,0,0,0,0,0,0,0,-3.0676,-3.0683,-3.0758,-3.075,-3.0753,-3.0758,-3.0765,-3.0792,-3.0825,-3.0797,-3.0799,-3.0806,-3.0854,-3.0867,-3.0872,-3.0913,-3.0892,-3.0895,-3.0896,-3.0897,-3.0977,-3.0977,0,0,0,0,0,0,-3.0669,-3.068,-3.0756,-3.0759,-3.0715,-3.076,-3.0768,-3.0785,-3.0825,-3.083,-3.0806,-3.0807,-3.0863,-3.0869,-3.0874,-3.0904,-3.0895,-3.0898,-3.0899,-3.0976,-3.0977,-3.0977,0,0,0,0,0,0,-3.0667,-3.0676,-3.0753,-3.072,-3.0731,-3.0763,-3.0781,-3.0787,-3.08,-3.0832,-3.0837,-3.0814,-3.0863,-3.087,-3.0899,-3.0907,-3.0899,-3.0901,-3.0976,-3.0976,-3.0977,-3.0965,0,0,0,0,0,0,-3.0664,-3.0675,-3.0684,-3.0721,-3.0732,-3.0778,-3.0782,-3.0788,-3.0805,-3.0806,-3.084,-3.0846,-3.0863,-3.0895,-3.0902,-3.091,-3.0904,-3.0975,-3.0976,-3.0977,-3.0965,-3.0965,-3.0966,0,0,0,0,0,-3.066,-3.0677,-3.0685,-3.0693,-3.0745,-3.0778,-3.0785,-3.0805,-3.0805,-3.0815,-3.0836,-3.0845,-3.0905,-3.0898,-3.0906,-3.0915,-3.0975,-3.0976,-3.0977,-3.0965,-3.0965,-3.0966,0,0,0,0,0,0,-3.064,-3.0683,-3.0691,-3.0721,-3.0746,-3.0782,-3.0794,-3.0805,-3.083,-3.083,-3.0854,-3.0861,-3.0888,-3.0905,-3.0896,-3.094,-3.094,-3.0943,-3.0929,-3.0929,-3.093,-3.0925,-3.0906,0,0,0,0,0,-3.0639,-3.0663,-3.0699,-3.0722,-3.0734,-3.0762,-3.0777,-3.0791,-3.0818,-3.0828,-3.0851,-3.0875,-3.09,-3.0916,-3.094,-3.0968,-3.0976,-3.0978,-3.0979,-3.0979,-3.0981,-3.0997,-3.0999,-3.0981,-3.0981,-3.0981,0,0,-3.0637,-3.0663,-3.0677,-3.0718,-3.0739,-3.0763,-3.0771,-3.0795,-3.0813,-3.0831,-3.086,-3.0878,-3.0907,-3.0936,-3.095,-3.095,-3.0988,-3.098,-3.098,-3.0982,-3.0998,-3.1,-3.1001,-3.0981,-3.0981,-3.0981,0,0,-3.0646,-3.0668,-3.069,-3.0711,-3.0744,-3.0763,-3.0768,-3.0803,-3.0816,-3.0846,-3.086,-3.0882,-3.0924,-3.0944,-3.096,-3.0978,-3.0987,-3.0986,-3.0987,-3.1003,-3.1004,-3.1005,-3.1012,-3.1014,-3.0987,-3.0987,-3.0987,0,-3.0639,-3.0676,-3.07,-3.0724,-3.0742,-3.0761,-3.0783,-3.0803,-3.0841,-3.0852,-3.0853,-3.0907,-3.0928,-3.0962,-3.0967,-3.0979,-3.0985,-3.0981,-3.1002,-3.1004,-3.1005,-3.1012,-3.1014,-3.0987,-3.0987,-3.0987,-3.0987,0,-3.0666,-3.0692,-3.0705,-3.0743,-3.0763,-3.0786,-3.0812,-3.0829,-3.0842,-3.0861,-3.0891,-3.0917,-3.0948,-3.0957,-3.0969,-3.0993,-3.0993,-3.0998,-3.0998,-3.1006,-3.1013,-3.1015,-3.0986,-3.0986,-3.0987,-3.0987,0,0,-3.0662,-3.0714,-3.0719,-3.0737,-3.0774,-3.0794,-3.0818,-3.085,-3.0863,-3.0889,-3.091,-3.0946,-3.0951,-3.0969,-3.0984,-3.0998,-3.1011,-3.1001,-3.1002,-3.1002,-3.1039,-3.1035,-3.1038,-3.1018,-3.1019,-3.1019,-3.1037,0,-3.0676,-3.0721,-3.0743,-3.0778,-3.0802,-3.0821,-3.0842,-3.0868,-3.0886,-3.0909,-3.0929,-3.0954,-3.0959,-3.097,-3.0985,-3.1006,-3.1019,-3.1006,-3.1037,-3.1038,-3.1028,-3.1041,-3.1036,-3.1052,-3.104,-3.104,-3.104,0,-3.0697,-3.0725,-3.0762,-3.0798,-3.0809,-3.0827,-3.0858,-3.088,-3.0909,-3.0921,-3.0943,-3.0957,-3.0983,-3.0983,-3.1019,-3.1009,-3.1024,-3.1036,-3.1038,-3.104,-3.1039,-3.1044,-3.1057,-3.1059,-3.1045,-3.1044,-3.1044,0,-3.0691,-3.0737,-3.0765,-3.078,-3.0822,-3.0835,-3.0853,-3.0882,-3.09,-3.0927,-3.0938,-3.0968,-3.0983,-3.1005,-3.1028,-3.1025,-3.1062,-3.1063,-3.1073,-3.1072,-3.1078,-3.1078,-3.1094,-3.1089,-3.1089,-3.1089,-3.1089,0,-3.0703,-3.0725,-3.0763,-3.078,-3.0806,-3.0832,-3.0856,-3.0875,-3.0901,-3.0923,-3.0941,-3.0961,-3.099,-3.1013,-3.1031,-3.1058,-3.1065,-3.1076,-3.108,-3.1074,-3.1072,-3.1083,-3.1082,-3.1089,-3.1089,-3.1089,-3.1089,0,-3.0699,-3.0726,-3.0758,-3.0797,-3.0807,-3.0824,-3.0856,-3.0874,-3.0894,-3.0921,-3.0929,-3.096,-3.0988,-3.1013,-3.1051,-3.1063,-3.1091,-3.1096,-3.1081,-3.1083,-3.1091,-3.109,-3.1114,-3.1118,-3.1111,-3.1111,-3.1111,0,-3.0705,-3.0723,-3.0764,-3.078,-3.0798,-3.0824,-3.0842,-3.0868,-3.0887,-3.0922,-3.0935,-3.0966,-3.0991,-3.1035,-3.1061,-3.109,-3.1096,-3.1103,-3.11,-3.1094,-3.1096,-3.1094,-3.1096,-3.1102,-3.1102,-3.1102,-3.1102,0,-3.0713,-3.0726,-3.0752,-3.0783,-3.0805,-3.083,-3.0856,-3.0868,-3.0899,-3.0919,-3.0949,-3.0968,-3.1007,-3.1037,-3.1069,-3.1087,-3.11,-3.1103,-3.1107,-3.11,-3.109,-3.1095,-3.108,-3.1102,-3.1102,-3.1102,-3.1102,-3.1102,-3.0714,-3.0731,-3.0763,-3.0791,-3.0814,-3.0838,-3.0857,-3.088,-3.0905,-3.0939,-3.0954,-3.0984,-3.1014,-3.1058,-3.1077,-3.1101,-3.1103,-3.1108,-3.1109,-3.111,-3.1109,-3.1087,-3.1107,-3.1107,-3.1107,-3.1107,-3.1107,0,-3.0723,-3.0744,-3.0771,-3.0807,-3.083,-3.0841,-3.087,-3.0888,-3.0915,-3.0942,-3.0967,-3.1002,-3.1031,-3.106,-3.109,-3.1104,-3.1111,-3.1111,-3.111,-3.1114,-3.1105,-3.1099,-3.1105,-3.1105,-3.1105,-3.1105,-3.1105,-3.1105,-3.073,-3.0759,-3.0775,-3.0816,-3.0837,-3.0868,-3.0884,-3.0906,-3.0928,-3.0966,-3.099,-3.1009,-3.1037,-3.107,-3.1098,-3.1105,-3.1116,-3.1115,-3.1124,-3.1115,-3.1115,-3.1114,-3.1109,-3.1117,-3.1117,-3.113,-3.113,-3.1131]},{"header":{"parameterUnit":"m.s-1","parameterCategory":1,"la1":30.2991,"la2":30.254,"lo1":-89.0895,"lo2":-89.0444,"dy":0.0017,"dx":0.0017,"nx":28,"ny":28,"refTime":"2025-04-17T21:00:00:Z","depth":0,"parameterNumber":3,"parameterNumberName":"V-component_of_WINDS"},"data":[0,0,0,0,0,0,0,0,0,0,0,0,0,0,0,0,0,0,0,0,0,0,0,0,0,0,0,0,0,0,0,0,0,0,0,0,0,0,0,0,0,0,0,0,0,0,0,0,0,0,0,0,0,0,0,0,0,0,4.6447,4.6448,0,4.6534,4.6535,4.6536,4.6536,4.6535,4.6534,4.6533,4.6616,4.6619,4.6622,0,0,0,0,0,0,0,0,0,0,0,0,0,4.6277,4.6281,4.6447,4.6448,4.6449,4.6534,4.6535,4.6536,4.6536,4.6535,4.6533,4.6532,4.6615,4.6619,4.6623,0,0,0,0,0,0,0,0,0,0,0,0,0,4.6356,4.6282,4.6447,4.646,4.6462,4.6533,4.6535,4.6536,4.6536,4.6535,4.6533,4.6532,4.6614,4.6618,4.6623,4.6686,0,0,4.6638,4.664,0,0,0,0,0,0,0,0,4.6352,4.6362,4.6457,4.6459,4.6461,4.6523,4.6506,4.6586,4.6537,4.6508,4.6533,4.6531,4.6586,4.6593,4.6613,4.669,4.6694,4.6638,4.6641,4.6643,4.6645,0,0,0,0,0,0,0,4.6346,4.6359,4.6481,4.6458,4.6461,4.646,4.6469,4.6521,4.6555,4.651,4.6511,4.6521,4.6587,4.6608,4.6614,4.6695,4.6638,4.6643,4.6646,4.6647,4.6829,4.6831,0,0,0,0,0,0,4.6339,4.6354,4.6478,4.6484,4.6402,4.6464,4.6475,4.6504,4.6554,4.656,4.6522,4.6521,4.66,4.6609,4.6617,4.6695,4.6643,4.6648,4.6651,4.6827,4.683,4.6832,0,0,0,0,0,0,4.6335,4.635,4.6475,4.6419,4.6435,4.6469,4.6502,4.6507,4.6528,4.6564,4.6569,4.6538,4.6599,4.6611,4.667,4.6698,4.665,4.6655,4.6825,4.6828,4.6831,4.6851,0,0,0,0,0,0,4.633,4.6349,4.6374,4.642,4.6438,4.6527,4.6504,4.651,4.6537,4.6536,4.658,4.6585,4.6599,4.6662,4.6675,4.6704,4.6658,4.6823,4.6826,4.683,4.6848,4.6854,4.6859,0,0,0,0,0,4.6324,4.6375,4.6375,4.639,4.6471,4.6529,4.6539,4.6555,4.654,4.6565,4.6588,4.6584,4.6693,4.6668,4.6682,4.6713,4.6821,4.6825,4.683,4.6845,4.6853,4.6859,0,0,0,0,0,0,4.6329,4.6381,4.6382,4.6449,4.6485,4.6529,4.6561,4.6563,4.6602,4.6599,4.6616,4.6626,4.6685,4.6705,4.6676,4.6777,4.6755,4.6762,4.6762,4.677,4.6775,4.6769,4.6662,0,0,0,0,0,4.6338,4.6383,4.6425,4.648,4.6498,4.6527,4.6552,4.6562,4.6599,4.6614,4.6641,4.6675,4.6717,4.6745,4.6785,4.6851,4.686,4.6879,4.6885,4.6889,4.6895,4.6932,4.6941,4.6846,4.6846,4.6846,0,0,4.6357,4.6391,4.6417,4.6482,4.6511,4.6555,4.6539,4.6587,4.662,4.662,4.6678,4.67,4.6739,4.6802,4.6831,4.6821,4.6924,4.6895,4.6898,4.6902,4.6937,4.6946,4.6954,4.6849,4.6848,4.6848,0,0,4.6414,4.6444,4.6494,4.6524,4.6569,4.6587,4.6599,4.6644,4.6659,4.6718,4.6719,4.6758,4.683,4.6859,4.6883,4.6952,4.695,4.6965,4.6995,4.703,4.7038,4.7045,4.707,4.7078,4.6971,4.6971,4.6971,0,4.643,4.65,4.6518,4.6567,4.6595,4.6601,4.665,4.6678,4.6733,4.6751,4.674,4.6831,4.6858,4.6928,4.6946,4.6965,4.6978,4.696,4.7036,4.7043,4.7049,4.7073,4.7082,4.6972,4.6972,4.6972,4.6972,0,4.6518,4.6566,4.6601,4.6657,4.6689,4.6737,4.6762,4.6792,4.68,4.6819,4.688,4.6912,4.696,4.6978,4.6984,4.7049,4.7041,4.7032,4.701,4.7059,4.7082,4.7091,4.6974,4.6974,4.6973,4.6973,0,0,4.6579,4.6647,4.6659,4.6685,4.6735,4.6772,4.6821,4.687,4.6895,4.6933,4.6974,4.7036,4.7029,4.7056,4.7066,4.7097,4.7151,4.7084,4.7086,4.7096,4.7224,4.723,4.7241,4.715,4.7152,4.7153,4.7221,0,4.6642,4.6731,4.675,4.6827,4.6871,4.6877,4.692,4.6955,4.6975,4.7014,4.7036,4.708,4.7067,4.7083,4.7114,4.7137,4.7176,4.7133,4.7187,4.7189,4.7177,4.7253,4.7259,4.7321,4.723,4.7231,4.7232,0,4.6726,4.6769,4.6851,4.6897,4.6916,4.6954,4.7001,4.704,4.7079,4.7091,4.7123,4.713,4.718,4.7156,4.7225,4.7195,4.7218,4.7233,4.7236,4.7241,4.7213,4.726,4.7341,4.7351,4.7246,4.7245,4.7244,0,4.6763,4.6841,4.69,4.6922,4.6977,4.7004,4.7027,4.7066,4.7094,4.7135,4.7154,4.7198,4.7223,4.7257,4.7276,4.7256,4.7343,4.732,4.7354,4.7354,4.7371,4.737,4.7458,4.7387,4.7387,4.7386,4.7386,0,4.6831,4.688,4.6918,4.6954,4.701,4.7031,4.7085,4.7108,4.7142,4.7182,4.719,4.7227,4.7249,4.7289,4.7304,4.7359,4.737,4.738,4.7383,4.738,4.7378,4.7395,4.7391,4.7389,4.7388,4.7388,4.7387,0,4.6881,4.6908,4.6973,4.7021,4.7034,4.7073,4.7113,4.7148,4.7169,4.7219,4.7232,4.7264,4.7312,4.7334,4.7392,4.7402,4.7465,4.7465,4.7452,4.7453,4.7485,4.7482,4.7587,4.7601,4.7521,4.7521,4.7522,0,4.6922,4.6961,4.7014,4.7042,4.7068,4.7113,4.7143,4.7165,4.7196,4.7245,4.7274,4.7322,4.7362,4.7438,4.7465,4.751,4.7511,4.7545,4.7518,4.7513,4.7512,4.7509,4.7513,4.7549,4.755,4.7551,4.7551,0,4.6993,4.7005,4.7049,4.7098,4.7134,4.7174,4.7212,4.7234,4.7262,4.7296,4.7346,4.7378,4.7439,4.7486,4.7533,4.7556,4.7558,4.756,4.757,4.7566,4.7557,4.7563,4.7465,4.7557,4.7557,4.7556,4.7556,4.7556,4.704,4.7075,4.7118,4.7167,4.7199,4.7235,4.7271,4.7297,4.734,4.7393,4.7403,4.7456,4.7495,4.7559,4.7583,4.7624,4.7616,4.7631,4.7635,4.7638,4.764,4.7551,4.7633,4.7633,4.7633,4.7632,4.7632,0,4.7111,4.714,4.7185,4.724,4.7278,4.7279,4.7322,4.7354,4.7401,4.7439,4.7479,4.7536,4.7583,4.7615,4.7662,4.7689,4.7691,4.77,4.7698,4.7704,4.7644,4.7631,4.7698,4.7698,4.7698,4.7698,4.7698,4.7698,4.7152,4.7213,4.723,4.7305,4.7333,4.7387,4.7412,4.7445,4.7475,4.754,4.758,4.7601,4.7636,4.7686,4.7729,4.7737,4.7754,4.7763,4.7771,4.7715,4.7708,4.7701,4.7689,4.7767,4.7767,4.7827,4.7828,4.7828]}]]